TimeEST,TemperatureF,Dew PointF,Humidity,Sea Level PressureIn,VisibilityMPH,Wind Direction,Wind SpeedMPH,Gust SpeedMPH,PrecipitationIn,Events,Conditions,WindDirDegrees,DateUTC
12:53 AM,45.0,39.9,82,30.16,10.0,North,6.9,-,N/A,,Clear,360,2012-11-22 05:53:00
1:53 AM,43.0,39.0,86,30.17,10.0,North,6.9,-,N/A,,Clear,360,2012-11-22 06:53:00
2:53 AM,42.1,39.0,89,30.16,10.0,North,6.9,-,N/A,,Clear,350,2012-11-22 07:53:00
3:53 AM,43.0,39.9,89,30.16,10.0,North,9.2,-,N/A,,Clear,360,2012-11-22 08:53:00
4:53 AM,43.0,41.0,93,30.16,10.0,North,6.9,-,N/A,,Clear,360,2012-11-22 09:53:00
5:53 AM,44.1,41.0,89,30.17,10.0,North,9.2,-,N/A,,Clear,350,2012-11-22 10:53:00
6:53 AM,43.0,39.9,89,30.19,9.0,North,8.1,-,N/A,,Clear,350,2012-11-22 11:53:00
7:53 AM,45.0,42.1,90,30.21,10.0,North,10.4,-,N/A,,Clear,360,2012-11-22 12:53:00
8:53 AM,48.9,44.1,83,30.22,10.0,North,6.9,-,N/A,,Clear,10,2012-11-22 13:53:00
9:53 AM,52.0,45.0,77,30.22,10.0,NNE,16.1,19.6,N/A,,Clear,30,2012-11-22 14:53:00
10:53 AM,53.1,46.0,77,30.22,10.0,NNE,10.4,18.4,N/A,,Clear,20,2012-11-22 15:53:00
11:53 AM,54.0,46.0,75,30.20,10.0,NNE,12.7,20.7,N/A,,Scattered Clouds,20,2012-11-22 16:53:00
12:12 PM,53.6,46.4,77,30.19,10.0,NNE,13.8,21.9,N/A,,Mostly Cloudy,30,2012-11-22 17:12:00
12:21 PM,55.4,46.4,72,30.19,10.0,NNE,10.4,-,N/A,,Mostly Cloudy,20,2012-11-22 17:21:00
12:53 PM,54.0,46.0,75,30.17,10.0,NNE,15.0,23.0,N/A,,Mostly Cloudy,20,2012-11-22 17:53:00
1:00 PM,53.6,46.4,77,30.17,10.0,NNE,15.0,21.9,N/A,,Scattered Clouds,20,2012-11-22 18:00:00
1:53 PM,54.0,46.0,75,30.17,10.0,NNE,15.0,21.9,N/A,,Clear,30,2012-11-22 18:53:00
2:23 PM,53.6,46.4,77,30.17,10.0,NNE,16.1,-,N/A,,Mostly Cloudy,20,2012-11-22 19:23:00
2:36 PM,53.6,46.4,77,30.16,10.0,NNE,11.5,20.7,N/A,,Mostly Cloudy,20,2012-11-22 19:36:00
2:53 PM,53.1,46.0,77,30.17,10.0,NNE,13.8,19.6,N/A,,Overcast,20,2012-11-22 19:53:00
3:23 PM,53.6,46.4,77,30.17,10.0,NNE,12.7,19.6,N/A,,Scattered Clouds,30,2012-11-22 20:23:00
3:53 PM,52.0,46.0,80,30.17,10.0,NNE,11.5,19.6,N/A,,Clear,30,2012-11-22 20:53:00
4:53 PM,48.9,46.0,90,30.18,9.0,NNE,5.8,-,N/A,,Partly Cloudy,20,2012-11-22 21:53:00
5:53 PM,46.9,46.0,97,30.18,9.0,North,4.6,-,N/A,,Clear,10,2012-11-22 22:53:00
6:53 PM,48.0,46.9,96,30.18,8.0,North,4.6,-,N/A,,Clear,10,2012-11-22 23:53:00
7:53 PM,43.0,43.0,100,30.17,5.0,North,3.5,-,N/A,,Clear,350,2012-11-23 00:53:00
8:53 PM,41.0,41.0,100,30.17,2.5,NNW,4.6,-,N/A,,Clear,330,2012-11-23 01:53:00
9:43 PM,39.2,39.2,100,30.17,1.5,NNW,4.6,-,N/A,,Clear,330,2012-11-23 02:43:00
9:53 PM,39.9,39.0,97,30.17,1.2,NNW,3.5,-,N/A,,Clear,330,2012-11-23 02:53:00
10:39 PM,37.4,35.6,93,30.16,0.8,Calm,Calm,-,N/A,,Mist,0,2012-11-23 03:39:00
10:49 PM,37.4,37.4,100,30.16,1.2,NW,3.5,-,N/A,,Partly Cloudy,320,2012-11-23 03:49:00
10:53 PM,37.0,37.0,100,30.16,2.0,NW,3.5,-,N/A,,Partly Cloudy,320,2012-11-23 03:53:00
11:14 PM,37.4,37.4,100,30.15,1.2,Calm,Calm,-,N/A,,Scattered Clouds,0,2012-11-23 04:14:00
11:24 PM,35.6,35.6,100,30.15,3.0,Calm,Calm,-,N/A,,Partly Cloudy,0,2012-11-23 04:24:00
11:33 PM,35.6,35.6,100,30.15,1.8,Calm,Calm,-,N/A,,Mostly Cloudy,0,2012-11-23 04:33:00
11:40 PM,35.6,35.6,100,30.15,0.5,Calm,Calm,-,N/A,Fog,Fog,0,2012-11-23 04:40:00
11:53 PM,36.0,35.1,97,30.14,0.5,Calm,Calm,-,N/A,Fog,Fog,0,2012-11-23 04:53:00